CXAMC SUPE-SUTR

Flight info

Callsign CXAMC
Flight time 1h 1m
Altitude 1500
Route DCT
Aircraft C182/L-SG/C

Departure

Time 2026-04-27 13:14
Airport El Jagüel / Punta del Este Airport (SUPE)

Arrival

Time 2026-04-27 14:16
Airport Treinta y Tres Airport (SUTR)
Time Latitude Longitude Altitude Speed Heading
2026-04-27 13:10 -34.91381 -54.91866 56 ft 0 kts 92°
2026-04-27 13:12 -34.91381 -54.91865 56 ft 1 kts 93°
2026-04-27 13:12 -34.91370 -54.91855 55 ft 3 kts 322°
2026-04-27 13:12 -34.91366 -54.91863 56 ft 2 kts 283°
2026-04-27 13:13 -34.91361 -54.91904 58 ft 8 kts 270°
2026-04-27 13:13 -34.91359 -54.91980 61 ft 7 kts 271°
2026-04-27 13:13 -34.91357 -54.92036 62 ft 8 kts 282°
2026-04-27 13:13 -34.91180 -54.92038 57 ft 56 kts
2026-04-27 13:14 -34.90651 -54.91996 178 ft 85 kts
2026-04-27 13:14 -34.90025 -54.91948 379 ft 93 kts 359°
2026-04-27 13:14 -34.89453 -54.91657 541 ft 95 kts 40°
2026-04-27 13:14 -34.88937 -54.91109 685 ft 102 kts 39°
2026-04-27 13:15 -34.88376 -54.90640 954 ft 96 kts 24°
2026-04-27 13:15 -34.87765 -54.90354 1183 ft 96 kts 17°
2026-04-27 13:15 -34.87075 -54.90149 1340 ft 99 kts
2026-04-27 13:15 -34.86406 -54.90139 1590 ft 94 kts 358°
2026-04-27 13:16 -34.85763 -54.89916 1722 ft 105 kts 24°
2026-04-27 13:16 -34.85065 -54.89490 1809 ft 113 kts 25°
2026-04-27 13:16 -34.84337 -54.89077 1871 ft 123 kts 24°
2026-04-27 13:16 -34.83532 -54.88651 1951 ft 126 kts 21°
2026-04-27 13:17 -34.82705 -54.88264 2007 ft 133 kts 20°
2026-04-27 13:17 -34.81876 -54.87884 2237 ft 125 kts 19°
2026-04-27 13:17 -34.81009 -54.87509 2114 ft 143 kts 19°
2026-04-27 13:17 -34.80049 -54.87098 1998 ft 149 kts 19°
2026-04-27 13:18 -34.79112 -54.86690 2107 ft 140 kts 19°
2026-04-27 13:18 -34.78216 -54.86255 2175 ft 138 kts 21°
2026-04-27 13:18 -34.77338 -54.85829 2198 ft 137 kts 20°
2026-04-27 13:18 -34.76447 -54.85405 2225 ft 137 kts 20°
2026-04-27 13:19 -34.75556 -54.84981 2261 ft 137 kts 20°
2026-04-27 13:19 -34.74663 -54.84558 2307 ft 138 kts 20°
2026-04-27 13:19 -34.73758 -54.84180 2387 ft 138 kts 16°
2026-04-27 13:19 -34.72842 -54.83839 2466 ft 138 kts 16°
2026-04-27 13:20 -34.71912 -54.83559 2534 ft 138 kts 12°
2026-04-27 13:20 -34.70968 -54.83292 2588 ft 140 kts 12°
2026-04-27 13:20 -34.70019 -54.83025 2624 ft 140 kts 12°
2026-04-27 13:20 -34.69070 -54.82938 2603 ft 134 kts 341°
2026-04-27 13:21 -34.68139 -54.82944 2539 ft 125 kts
2026-04-27 13:21 -34.67341 -54.82726 2534 ft 120 kts 12°
2026-04-27 13:21 -34.66573 -54.82486 2531 ft 107 kts 15°
2026-04-27 13:21 -34.65841 -54.82245 2531 ft 115 kts 13°
2026-04-27 13:22 -34.65052 -54.82001 2546 ft 116 kts 14°
2026-04-27 13:22 -34.64307 -54.81760 2548 ft 107 kts 14°
2026-04-27 13:22 -34.63564 -54.81516 2543 ft 118 kts 13°
2026-04-27 13:22 -34.62794 -54.81267 2544 ft 116 kts 13°
2026-04-27 13:23 -34.62040 -54.81020 2531 ft 111 kts 14°
2026-04-27 13:23 -34.61296 -54.80774 2542 ft 113 kts 14°
2026-04-27 13:23 -34.60534 -54.80526 2551 ft 117 kts 14°
2026-04-27 13:23 -34.59757 -54.80277 2538 ft 113 kts 15°
2026-04-27 13:24 -34.58991 -54.80024 2543 ft 112 kts 15°
2026-04-27 13:24 -34.58228 -54.79772 2541 ft 115 kts 14°
2026-04-27 13:24 -34.57473 -54.79524 2530 ft 114 kts 14°
2026-04-27 13:24 -34.56744 -54.79299 2547 ft 106 kts
2026-04-27 13:25 -34.55999 -54.79062 2529 ft 107 kts 15°
2026-04-27 13:25 -34.55259 -54.78827 2540 ft 116 kts 15°
2026-04-27 13:25 -34.54527 -54.78590 2523 ft 108 kts 13°
2026-04-27 13:25 -34.53760 -54.78330 2528 ft 110 kts 14°
2026-04-27 13:26 -34.53034 -54.78096 2546 ft 111 kts 14°
2026-04-27 13:26 -34.52295 -54.77835 2542 ft 98 kts 25°
2026-04-27 13:26 -34.51597 -54.77593 2554 ft 113 kts 11°
2026-04-27 13:26 -34.50869 -54.77403 2547 ft 107 kts 11°
2026-04-27 13:27 -34.50133 -54.77164 2545 ft 111 kts 23°
2026-04-27 13:27 -34.49420 -54.76820 2544 ft 110 kts 15°
2026-04-27 13:27 -34.48681 -54.76566 2551 ft 111 kts 15°
2026-04-27 13:27 -34.47939 -54.76305 2561 ft 112 kts 15°
2026-04-27 13:28 -34.47190 -54.76043 2568 ft 112 kts 14°
2026-04-27 13:28 -34.46438 -54.75780 2596 ft 113 kts 15°
2026-04-27 13:28 -34.45685 -54.75517 2618 ft 113 kts 15°
2026-04-27 13:28 -34.44928 -54.75255 2620 ft 113 kts 15°
2026-04-27 13:29 -34.44184 -54.74996 2575 ft 112 kts 15°
2026-04-27 13:29 -34.43433 -54.74734 2540 ft 112 kts 15°
2026-04-27 13:29 -34.42684 -54.74474 2508 ft 112 kts 15°
2026-04-27 13:29 -34.41936 -54.74214 2442 ft 112 kts 15°
2026-04-27 13:30 -34.41188 -54.73953 2419 ft 112 kts 15°
2026-04-27 13:30 -34.40443 -54.73694 2356 ft 112 kts 15°
2026-04-27 13:30 -34.39695 -54.73434 2323 ft 111 kts 15°
2026-04-27 13:30 -34.38991 -54.73373 2479 ft 87 kts 316°
2026-04-27 13:31 -34.38345 -54.73267 2531 ft 117 kts 15°
2026-04-27 13:31 -34.37511 -54.72996 2578 ft 125 kts 14°
2026-04-27 13:31 -34.36679 -54.72714 2516 ft 129 kts 15°
2026-04-27 13:31 -34.35888 -54.72450 2510 ft 116 kts 13°
2026-04-27 13:32 -34.35157 -54.72204 2468 ft 103 kts 13°
2026-04-27 13:32 -34.34486 -54.72001 2488 ft 109 kts 17°
2026-04-27 13:32 -34.33688 -54.71740 2510 ft 121 kts 17°
2026-04-27 13:32 -34.32914 -54.71463 2488 ft 108 kts 15°
2026-04-27 13:33 -34.32179 -54.71237 2495 ft 113 kts 11°
2026-04-27 13:33 -34.31411 -54.71026 2495 ft 122 kts 15°
2026-04-27 13:33 -34.30695 -54.70719 2390 ft 100 kts 17°
2026-04-27 13:33 -34.30069 -54.70500 2325 ft 97 kts 12°
2026-04-27 13:34 -34.29420 -54.70343 2476 ft 111 kts 13°
2026-04-27 13:34 -34.28623 -54.70070 2536 ft 123 kts 15°
2026-04-27 13:34 -34.27801 -54.69790 2478 ft 116 kts 14°
2026-04-27 13:34 -34.27086 -54.69557 2487 ft 107 kts 12°
2026-04-27 13:35 -34.26347 -54.69338 2505 ft 112 kts 12°
2026-04-27 13:35 -34.25615 -54.69126 2480 ft 105 kts 12°
2026-04-27 13:35 -34.24915 -54.68924 2449 ft 103 kts 12°
2026-04-27 13:35 -34.24230 -54.68703 2410 ft 102 kts 18°
2026-04-27 13:36 -34.23525 -54.68406 2424 ft 111 kts 18°
2026-04-27 13:36 -34.22780 -54.68158 2457 ft 114 kts 11°
2026-04-27 13:36 -34.22017 -54.67949 2396 ft 103 kts 12°
2026-04-27 13:36 -34.21328 -54.67758 2370 ft 103 kts 12°
2026-04-27 13:37 -34.20618 -54.67558 2448 ft 106 kts 12°
2026-04-27 13:37 -34.19895 -54.67354 2506 ft 107 kts 14°
2026-04-27 13:37 -34.19179 -54.67081 2538 ft 108 kts 17°
2026-04-27 13:37 -34.18454 -54.66799 2592 ft 112 kts 17°
2026-04-27 13:38 -34.17701 -54.66508 2587 ft 114 kts 17°
2026-04-27 13:38 -34.16958 -54.66220 2525 ft 111 kts 17°
2026-04-27 13:38 -34.16227 -54.65943 2463 ft 109 kts 14°
2026-04-27 13:38 -34.15495 -54.65739 2427 ft 107 kts 12°
2026-04-27 13:39 -34.14769 -54.65518 2413 ft 108 kts 14°
2026-04-27 13:39 -34.14043 -54.65286 2408 ft 108 kts 13°
2026-04-27 13:39 -34.13327 -54.65057 2405 ft 107 kts 14°
2026-04-27 13:39 -34.12603 -54.64826 2354 ft 109 kts 13°
2026-04-27 13:40 -34.11854 -54.64588 2364 ft 112 kts 13°
2026-04-27 13:40 -34.11096 -54.64347 2431 ft 113 kts 14°
2026-04-27 13:40 -34.10334 -54.64106 2473 ft 113 kts 14°
2026-04-27 13:40 -34.09568 -54.63862 2495 ft 114 kts 13°
2026-04-27 13:41 -34.08808 -54.63589 2503 ft 114 kts 17°
2026-04-27 13:41 -34.08051 -54.63312 2466 ft 114 kts 15°
2026-04-27 13:41 -34.07292 -54.63042 2472 ft 113 kts 14°
2026-04-27 13:41 -34.06533 -54.62785 2484 ft 113 kts 14°
2026-04-27 13:42 -34.05775 -54.62544 2498 ft 112 kts 14°
2026-04-27 13:42 -34.05028 -54.62306 2477 ft 110 kts 13°
2026-04-27 13:42 -34.04289 -54.62073 2437 ft 109 kts 13°
2026-04-27 13:42 -34.03565 -54.61843 2418 ft 109 kts 14°
2026-04-27 13:43 -34.02831 -54.61610 2426 ft 109 kts 13°
2026-04-27 13:43 -34.02095 -54.61375 2444 ft 109 kts 14°
2026-04-27 13:43 -34.01358 -54.61139 2485 ft 110 kts 14°
2026-04-27 13:43 -34.00631 -54.60908 2489 ft 106 kts 13°
2026-04-27 13:44 -33.99918 -54.60683 2448 ft 106 kts 13°
2026-04-27 13:44 -33.99206 -54.60458 2432 ft 106 kts 13°
2026-04-27 13:44 -33.98495 -54.60232 2467 ft 106 kts 14°
2026-04-27 13:44 -33.97785 -54.60008 2470 ft 106 kts 13°
2026-04-27 13:45 -33.97077 -54.59784 2446 ft 105 kts 13°
2026-04-27 13:45 -33.96366 -54.59557 2439 ft 106 kts 13°
2026-04-27 13:45 -33.95657 -54.59334 2460 ft 105 kts 13°
2026-04-27 13:45 -33.94949 -54.59108 2442 ft 105 kts 13°
2026-04-27 13:46 -33.94241 -54.58884 2433 ft 105 kts 13°
2026-04-27 13:46 -33.93532 -54.58661 2451 ft 105 kts 13°
2026-04-27 13:46 -33.92833 -54.58441 2436 ft 105 kts 13°
2026-04-27 13:46 -33.92126 -54.58218 2386 ft 105 kts 13°
2026-04-27 13:47 -33.91417 -54.57995 2371 ft 105 kts 13°
2026-04-27 13:47 -33.90710 -54.57771 2335 ft 105 kts 13°
2026-04-27 13:47 -33.90000 -54.57547 2365 ft 105 kts 13°
2026-04-27 13:47 -33.89293 -54.57323 2356 ft 105 kts 13°
2026-04-27 13:48 -33.88584 -54.57099 2335 ft 105 kts 13°
2026-04-27 13:48 -33.87876 -54.56877 2330 ft 105 kts 13°
2026-04-27 13:48 -33.87165 -54.56653 2322 ft 105 kts 13°
2026-04-27 13:48 -33.86458 -54.56431 2321 ft 105 kts 13°
2026-04-27 13:49 -33.85749 -54.56208 2317 ft 105 kts 13°
2026-04-27 13:49 -33.85043 -54.55982 2311 ft 104 kts 13°
2026-04-27 13:49 -33.84339 -54.55761 2285 ft 105 kts 13°
2026-04-27 13:49 -33.83635 -54.55541 2241 ft 105 kts 14°
2026-04-27 13:50 -33.82930 -54.55322 2192 ft 104 kts 13°
2026-04-27 13:50 -33.82230 -54.55108 2156 ft 104 kts 14°
2026-04-27 13:50 -33.81526 -54.54885 2158 ft 105 kts 13°
2026-04-27 13:50 -33.80821 -54.54663 2164 ft 105 kts 13°
2026-04-27 13:51 -33.80115 -54.54442 2172 ft 105 kts 13°
2026-04-27 13:51 -33.79409 -54.54221 2188 ft 105 kts 13°
2026-04-27 13:51 -33.78702 -54.53999 2206 ft 105 kts 13°
2026-04-27 13:51 -33.78003 -54.53779 2241 ft 105 kts 13°
2026-04-27 13:52 -33.77298 -54.53558 2195 ft 105 kts 13°
2026-04-27 13:52 -33.76591 -54.53337 2148 ft 105 kts 13°
2026-04-27 13:52 -33.75883 -54.53116 2116 ft 105 kts 13°
2026-04-27 13:52 -33.75175 -54.52893 2151 ft 105 kts 13°
2026-04-27 13:53 -33.73760 -54.52450 2175 ft 105 kts 13°
2026-04-27 13:53 -33.73052 -54.52231 2182 ft 105 kts 13°
2026-04-27 13:53 -33.72346 -54.52010 2162 ft 105 kts 13°
2026-04-27 13:54 -33.71638 -54.51790 2162 ft 105 kts 13°
2026-04-27 13:54 -33.70933 -54.51573 2148 ft 105 kts 13°
2026-04-27 13:54 -33.70226 -54.51352 2122 ft 105 kts 13°
2026-04-27 13:54 -33.69520 -54.51133 2080 ft 105 kts 13°
2026-04-27 13:55 -33.68812 -54.50913 2056 ft 105 kts 13°
2026-04-27 13:55 -33.68345 -54.50769 2059 ft 105 kts 14°
2026-04-27 13:55 -33.67409 -54.50478 2083 ft 105 kts 13°
2026-04-27 13:55 -33.66702 -54.50258 2086 ft 105 kts 13°
2026-04-27 13:56 -33.65997 -54.50040 2087 ft 105 kts 13°
2026-04-27 13:56 -33.65291 -54.49820 2099 ft 105 kts 13°
2026-04-27 13:56 -33.64585 -54.49602 2054 ft 105 kts 13°
2026-04-27 13:56 -33.63879 -54.49383 2037 ft 105 kts 13°
2026-04-27 13:57 -33.63410 -54.49236 2030 ft 105 kts 13°
2026-04-27 13:57 -33.62703 -54.49016 2043 ft 105 kts 13°
2026-04-27 13:57 -33.61997 -54.48799 2003 ft 105 kts 13°
2026-04-27 13:57 -33.61290 -54.48580 1966 ft 105 kts 13°
2026-04-27 13:58 -33.60584 -54.48361 1926 ft 105 kts 13°
2026-04-27 13:58 -33.59878 -54.48144 1925 ft 104 kts 13°
2026-04-27 13:58 -33.59173 -54.47927 1887 ft 104 kts 13°
2026-04-27 13:58 -33.58469 -54.47710 1843 ft 105 kts 13°
2026-04-27 13:59 -33.57764 -54.47491 1858 ft 104 kts 13°
2026-04-27 13:59 -33.57060 -54.47276 1826 ft 104 kts 13°
2026-04-27 13:59 -33.56357 -54.47060 1829 ft 104 kts 13°
2026-04-27 13:59 -33.55653 -54.46842 1818 ft 105 kts 13°
2026-04-27 14:00 -33.54950 -54.46626 1821 ft 104 kts 13°
2026-04-27 14:00 -33.54253 -54.46412 1805 ft 104 kts 13°
2026-04-27 14:00 -33.53547 -54.46195 1790 ft 104 kts 13°
2026-04-27 14:00 -33.52843 -54.45977 1789 ft 104 kts 13°
2026-04-27 14:01 -33.52134 -54.45766 1824 ft 109 kts
2026-04-27 14:01 -33.51467 -54.45902 2252 ft 95 kts 326°
2026-04-27 14:01 -33.51014 -54.46560 2502 ft 106 kts 297°
2026-04-27 14:01 -33.50602 -54.47391 2682 ft 113 kts 303°
2026-04-27 14:02 -33.50195 -54.48054 3060 ft 111 kts 315°
2026-04-27 14:02 -33.49615 -54.48713 3348 ft 112 kts 315°
2026-04-27 14:02 -33.48984 -54.49502 3203 ft 143 kts 309°
2026-04-27 14:02 -33.48259 -54.50374 3003 ft 161 kts 315°
2026-04-27 14:03 -33.47384 -54.51248 2724 ft 168 kts 326°
2026-04-27 14:03 -33.46384 -54.51789 2790 ft 160 kts 340°
2026-04-27 14:03 -33.45317 -54.52276 2447 ft 171 kts 343°
2026-04-27 14:03 -33.44260 -54.52582 2689 ft 149 kts 345°
2026-04-27 14:04 -33.43247 -54.52889 2729 ft 152 kts 345°
2026-04-27 14:04 -33.42214 -54.52956 2588 ft 159 kts 25°
2026-04-27 14:04 -33.41561 -54.51851 2298 ft 166 kts 66°
2026-04-27 14:04 -33.41083 -54.50628 2308 ft 158 kts 63°
2026-04-27 14:05 -33.40190 -54.50094 2370 ft 140 kts 17°
2026-04-27 14:05 -33.39339 -54.49764 2590 ft 138 kts 16°
2026-04-27 14:05 -33.38342 -54.49452 2562 ft 149 kts 14°
2026-04-27 14:05 -33.37380 -54.49114 2519 ft 129 kts 16°
2026-04-27 14:06 -33.36677 -54.48789 2547 ft 93 kts 19°
2026-04-27 14:06 -33.36133 -54.48724 2764 ft 74 kts 342°
2026-04-27 14:06 -33.35601 -54.48366 2530 ft 101 kts 14°
2026-04-27 14:06 -33.34971 -54.48035 2491 ft 94 kts 24°
2026-04-27 14:07 -33.34363 -54.47732 2496 ft 91 kts 19°
2026-04-27 14:07 -33.33785 -54.47446 2499 ft 97 kts 20°
2026-04-27 14:07 -33.33162 -54.47146 2488 ft 95 kts 20°
2026-04-27 14:07 -33.32567 -54.46856 2496 ft 91 kts 21°
2026-04-27 14:08 -33.31968 -54.46562 2489 ft 95 kts 18°
2026-04-27 14:08 -33.31364 -54.46270 2501 ft 94 kts 19°
2026-04-27 14:08 -33.30768 -54.45978 2494 ft 91 kts 19°
2026-04-27 14:08 -33.30173 -54.45704 2498 ft 98 kts 20°
2026-04-27 14:09 -33.29595 -54.45435 2482 ft 86 kts 13°
2026-04-27 14:09 -33.28989 -54.45139 2471 ft 92 kts 26°
2026-04-27 14:09 -33.28407 -54.44858 2354 ft 98 kts 24°
2026-04-27 14:09 -33.27768 -54.44425 2224 ft 116 kts 33°
2026-04-27 14:10 -33.27061 -54.43830 2049 ft 133 kts 36°
2026-04-27 14:10 -33.26346 -54.43227 1877 ft 121 kts 34°
2026-04-27 14:10 -33.25600 -54.42608 1705 ft 134 kts 34°
2026-04-27 14:10 -33.24834 -54.41975 1527 ft 132 kts 35°
2026-04-27 14:11 -33.24077 -54.41343 1502 ft 131 kts 34°
2026-04-27 14:11 -33.23374 -54.40751 1487 ft 120 kts 35°
2026-04-27 14:11 -33.22772 -54.40244 1462 ft 95 kts 33°
2026-04-27 14:11 -33.22384 -54.39659 1410 ft 104 kts 62°
2026-04-27 14:12 -33.22034 -54.39062 1355 ft 85 kts 54°
2026-04-27 14:12 -33.21818 -54.38344 1104 ft 91 kts 73°
2026-04-27 14:12 -33.21695 -54.37599 856 ft 95 kts 87°
2026-04-27 14:12 -33.21601 -54.36839 652 ft 94 kts 74°
2026-04-27 14:13 -33.21348 -54.36114 482 ft 93 kts 60°
2026-04-27 14:13 -33.20989 -54.35473 443 ft 92 kts 49°
2026-04-27 14:13 -33.20566 -54.34880 487 ft 95 kts 49°
2026-04-27 14:13 -33.20056 -54.34360 412 ft 104 kts 24°
2026-04-27 14:14 -33.19434 -54.34621 477 ft 96 kts 327°
2026-04-27 14:14 -33.18899 -54.35033 692 ft 82 kts 319°
2026-04-27 14:14 -33.19007 -54.35483 847 ft 95 kts 188°
2026-04-27 14:14 -33.19771 -54.35509 809 ft 124 kts 185°
2026-04-27 14:15 -33.20654 -54.35575 849 ft 135 kts 184°
2026-04-27 14:15 -33.21397 -54.35325 810 ft 102 kts 117°
2026-04-27 14:15 -33.21261 -54.34580 613 ft 90 kts 61°
2026-04-27 14:15 -33.20751 -54.34462 490 ft 82 kts 327°
2026-04-27 14:16 -33.20228 -54.34649 286 ft 83 kts 350°
2026-04-27 14:16 -33.19669 -54.34711 203 ft 71 kts 355°
2026-04-27 14:16 -33.19331 -54.34741 197 ft 18 kts 354°
2026-04-27 14:16 -33.19263 -54.34674 200 ft 7 kts 342°
2026-04-27 14:17 -33.19261 -54.34674 199 ft 0 kts 340°
2026-04-27 14:18 -33.19260 -54.34675 198 ft 1 kts 339°
2026-04-27 14:18 -33.19205 -54.34717 199 ft 13 kts 298°
2026-04-27 14:18 -33.19273 -54.34752 204 ft 16 kts 174°
2026-04-27 14:18 -33.19381 -54.34737 198 ft 17 kts 174°
2026-04-27 14:19 -33.19503 -54.34723 199 ft 20 kts 175°
2026-04-27 14:19 -33.19645 -54.34708 206 ft 19 kts 176°
2026-04-27 14:19 -33.19767 -54.34698 207 ft 16 kts 175°
2026-04-27 14:19 -33.19872 -54.34687 205 ft 16 kts 175°
2026-04-27 14:20 -33.19950 -54.34748 202 ft 13 kts 220°
2026-04-27 14:20 -33.20017 -54.34820 196 ft 13 kts 217°
2026-04-27 14:20 -33.20050 -54.34834 194 ft 1 kts 86°
2026-04-27 14:20 -33.20050 -54.34830 194 ft 0 kts 77°